Location: Leipzig
(51.3392°N, 12.3528°E)
Time: 04:51:08
(UTC+01:00)

ISS - Pass Details

Date: 08 January 2018
Orbit: 402 x 407 km, 51.6° (Epoch: 18 January)

Event Time Altitude Azimuth Distance (km) Brightness Sun altitude
Exits shadow 05:06:13 19° 84° (E) 1,053 -1.0 -28.2°
Drops below altitude 10° 05:07:15 10° 85° (E) 1,470 0.0 -28.0°
Sets 05:09:20 0° 86° (E) 2,331 1.3 -27.7°
